Theta_e
317 317 315 314 313 310 307 310 305 311 310 303 297 298 302 306 307 309 308 307 308 308 308 304 302 303 305 311 307 302 301 296 295 296 302 302 299 295 294 293 293 291 293 297
317 317 315 314 312 310 303 309 309 312 310 296 296 300 305 307 306 307 308 307 308 308 307 303 306 306 310 310 307 301 301 293 291 295 296 300 297 297 294 294 291 289 294 298
317 317 315 314 312 310 307 310 305 304 305 301 300 300 301 303 310 308 309 307 307 305 302 301 304 304 307 308 307 320 306 290 291 289 292 295 295 298 295 292 288 288 293 304
316 317 315 314 312 310 306 308 304 305 300 302 300 300 302 303 303 308 307 306 305 303 298 299 300 303 303 306 313 303 297 293 293 293 297 297 298 298 299 293 292 291 297 307
315 317 316 315 313 310 308 303 302 304 302 304 302 298 299 303 305 305 304 303 305 303 299 298 297 299 297 298 301 298 297 293 294 291 298 297 297 301 299 302 307 307 310 307
315 316 316 315 313 309 307 309 307 306 303 302 299 299 303 306 308 308 309 308 303 301 301 303 301 301 301 298 297 296 296 293 290 288 294 296 293 298 300 302 305 307 303 305
314 315 317 316 315 312 303 306 306 304 302 303 303 305 307 305 305 305 307 306 302 304 304 301 301 298 298 298 297 297 294 292 290 288 291 286 296 303 306 303 305 305 305 305
314 315 316 317 315 314 305 305 307 303 300 305 305 306 305 303 303 304 305 307 304 302 299 296 292 293 297 296 296 293 296 293 290 289 287 291 298 301 300 299 299 305 305 307
313 314 316 317 316 314 305 305 309 306 302 302 308 304 302 299 298 302 303 306 303 300 294 293 289 288 293 295 297 296 296 294 294 289 287 287 295 305 307 303 294 307 307 306
312 314 315 316 317 314 311 306 308 306 301 304 304 301 299 303 300 299 301 304 302 299 293 291 290 291 297 293 293 293 294 293 291 290 289 293 302 306 306 293 294 307 307 306
311 312 313 315 316 316 312 306 309 307 301 303 307 310 303 303 302 299 301 302 302 298 294 293 293 294 296 294 294 295 294 293 292 291 289 290 305 305 296 300 303 307 307 307
311 311 312 313 315 316 313 303 309 310 305 304 309 312 313 311 307 302 298 300 299 300 297 295 296 295 294 291 292 297 293 295 294 293 293 299 304 304 307 306 306 307 307 309
309 310 311 312 314 315 313 303 304 306 302 303 304 306 309 309 307 306 300 301 304 301 301 297 296 293 294 290 292 296 298 298 295 295 301 303 306 307 308 308 306 308 308 309
309 309 310 311 312 314 314 302 304 305 303 299 303 312 308 312 307 308 306 305 302 302 300 296 294 294 297 293 296 295 298 298 296 298 302 304 307 307 307 308 309 310 310 310
309 309 310 311 312 313 310 304 306 307 302 297 300 306 308 308 307 308 306 303 300 300 299 297 296 297 299 297 297 295 301 298 296 296 303 302 303 308 310 308 308 310 309 310
310 309 309 310 311 311 305 306 306 307 305 301 294 304 306 305 306 306 303 303 301 300 300 299 299 303 299 295 293 299 303 305 304 303 305 306 307 309 310 308 310 312 313 312
309 309 309 310 310 308 302 305 308 307 306 303 298 299 306 306 303 304 304 302 301 300 298 298 298 299 300 295 294 301 305 305 306 307 306 305 306 305 309 312 314 314 314 313
309 309 309 310 310 308 303 307 309 307 304 304 297 298 300 305 300 300 301 300 299 299 297 298 298 299 299 295 299 304 305 307 306 306 307 306 308 310 311 313 313 311 311 311
309 309 309 307 303 303 307 315 312 308 307 300 298 294 296 304 300 301 302 301 296 300 297 297 299 296 295 298 302 304 307 305 307 307 309 310 309 309 310 309 309 307 307 308
310 307 306 304 307 317 315 307 303 303 303 301 297 300 298 301 299 299 300 299 296 295 298 301 296 298 304 305 306 306 308 308 309 305 305 306 305 305 305 305 306 308 309 310
304 300 302 305 312 305 304 301 300 300 298 299 300 298 297 301 299 297 300 297 296 293 297 298 295 297 302 306 307 307 310 312 311 310 308 306 303 304 304 307 308 308 307 306
303 303 306 303 304 300 297 298 299 300 299 301 300 300 298 298 303 301 299 297 295 292 299 296 294 300 305 307 307 309 311 312 310 310 308 307 307 305 305 306 306 306 307 306
307 305 300 301 299 290 294 293 295 295 300 303 301 299 302 300 301 300 297 295 294 299 294 293 298 303 305 306 308 311 312 311 310 309 308 307 305 306 305 303 304 305 304 305
301 299 288 295 293 296 296 297 298 302 303 302 299 299 300 300 299 298 296 297 297 293 290 295 300 303 306 308 310 311 309 308 307 306 306 305 304 303 303 303 303 302 301 304
302 300 290 294 298 299 301 303 301 302 305 304 301 301 301 299 298 297 295 294 293 294 292 298 303 305 306 307 309 309 307 305 304 304 303 303 302 300 300 302 301 301 301 303
300 298 295 298 297 298 298 300 303 306 307 306 303 299 300 300 300 295 294 293 293 295 299 301 305 306 305 307 309 309 307 305 303 303 302 301 300 299 299 300 300 299 299 302
298 295 298 298 298 297 297 301 303 307 305 303 302 299 299 299 296 296 297 295 297 299 303 306 307 306 306 307 309 308 307 304 303 302 301 300 301 300 299 298 298 298 298 299
Wind_Speed
25 27 28 28 28 22 1 1 4 2 1 5 2 3 6 5 6 4 5 3 4 6 5 4 4 4 1 4 1 3 3 5 1 3 5 5 3 3 5 6 3 2 4 4
25 27 29 29 28 19 1 3 2 2 4 2 2 5 5 5 3 5 1 1 1 2 3 6 3 5 6 7 3 3 2 4 4 8 7 7 6 4 4 5 3 2 6 6
24 27 30 30 29 20 1 3 3 4 4 1 4 2 6 4 4 5 3 4 5 8 8 7 3 6 3 6 5 8 9 4 6 6 6 2 4 5 2 4 3 4 5 4
25 26 29 31 30 20 1 4 0 3 2 5 3 4 4 6 6 3 7 7 5 5 4 5 4 4 2 4 3 4 6 4 3 4 4 3 4 4 7 4 5 6 7 6
24 24 26 31 33 20 4 3 3 5 2 4 3 4 2 3 2 2 5 8 5 7 6 4 4 4 1 2 3 3 3 3 2 1 3 2 1 7 4 4 5 6 11 6
23 24 24 26 31 18 4 3 2 3 5 6 3 3 2 5 2 10 5 7 6 10 3 4 3 3 2 2 6 3 4 7 3 4 4 5 5 7 5 4 5 6 7 4
22 22 23 23 22 18 1 2 1 3 2 3 3 6 3 7 4 7 1 3 5 4 3 3 6 4 4 4 6 6 7 5 2 3 3 2 6 1 9 12 9 8 9 6
21 21 22 21 21 21 1 3 2 2 1 3 5 8 4 4 7 6 4 5 1 3 6 5 5 6 6 2 1 5 3 6 4 4 3 2 2 3 3 3 4 4 7 4
20 21 22 21 21 22 1 2 1 2 4 3 4 2 3 2 4 6 4 5 4 7 5 5 3 4 4 4 1 5 6 6 7 3 4 6 5 3 4 5 1 2 5 5
19 20 21 22 21 21 5 3 2 3 2 4 1 2 1 2 3 2 3 6 6 4 3 3 2 3 2 2 1 1 4 4 6 3 3 4 5 3 4 3 7 6 5 5
18 19 19 21 21 20 10 4 3 3 1 6 3 2 2 3 3 3 4 4 4 4 5 3 2 2 2 2 3 0 3 4 2 3 4 4 1 3 2 5 1 4 3 3
18 18 19 19 18 18 14 3 3 2 3 6 3 6 7 7 6 6 2 5 3 5 5 0 2 0 2 2 1 3 3 5 5 5 5 4 4 5 2 3 4 2 2 5
17 18 18 18 18 17 11 3 4 3 3 5 4 3 4 2 6 4 5 3 3 1 4 5 2 1 4 2 4 1 4 2 5 4 4 3 4 3 3 1 1 3 3 4
17 17 17 17 18 17 12 3 2 1 2 2 7 4 4 7 1 4 4 6 4 5 3 3 3 2 3 3 2 3 4 3 4 2 3 3 4 1 2 1 3 4 5 4
17 16 16 17 17 17 8 3 2 2 3 2 6 8 5 5 2 8 6 5 4 3 3 3 3 2 3 1 3 1 2 6 4 6 6 5 4 4 5 4 4 5 5 5
17 16 15 16 16 15 2 3 1 3 2 3 3 4 5 1 3 6 4 2 3 3 4 2 2 2 5 3 2 5 3 0 4 4 4 4 4 5 4 5 6 5 6 7
17 16 15 15 11 5 2 4 2 2 4 3 5 6 4 1 4 3 3 4 2 3 2 1 2 1 4 3 3 5 2 3 4 4 3 3 2 4 6 5 7 7 7 7
17 16 16 15 15 8 5 3 6 6 3 2 0 5 5 1 1 0 2 2 3 4 2 1 2 3 2 0 4 4 4 5 3 2 1 3 4 4 6 5 6 8 8 6
18 18 16 2 1 1 3 6 9 1 4 2 1 2 4 3 1 1 3 3 2 2 1 2 4 1 2 6 5 6 6 5 2 2 4 5 4 6 7 7 9 9 10 10
13 2 2 2 1 4 2 4 3 4 3 2 3 1 3 3 2 1 2 2 2 1 4 2 4 2 3 3 5 5 4 4 3 3 5 4 4 6 7 7 8 9 10 10
4 4 2 3 8 3 2 1 1 1 2 3 5 5 2 2 3 4 1 3 0 1 4 4 0 1 3 2 4 4 6 6 6 6 5 4 2 5 6 10 10 9 11 11
3 4 4 3 2 3 0 3 1 4 6 3 5 5 5 3 3 4 1 2 2 4 1 4 2 4 4 5 5 5 5 7 7 6 5 4 4 5 6 7 8 9 11 11
0 1 2 3 2 1 5 5 3 2 3 4 3 2 3 1 3 4 3 3 5 1 3 2 5 2 4 5 5 5 5 7 6 5 4 4 4 4 5 6 8 9 10 11
0 2 3 4 4 5 5 4 3 5 3 3 2 2 3 1 3 3 3 3 2 2 1 5 3 6 6 5 3 6 6 6 6 6 5 4 5 5 6 6 6 7 8 10
2 2 4 6 5 4 4 4 3 4 3 5 3 4 4 1 4 1 3 2 3 4 4 4 4 7 6 4 4 6 6 5 5 4 4 3 3 5 6 7 6 6 7 9
2 4 3 4 0 4 4 3 4 2 1 3 4 3 3 3 4 3 5 4 4 4 4 3 5 7 5 5 6 6 6 6 5 4 3 1 2 3 5 6 6 7 7 8
4 4 3 3 4 5 4 2 4 2 1 3 3 4 6 2 3 2 4 6 4 4 3 4 7 8 7 6 6 6 6 6 6 5 5 3 3 3 3 6 7 7 7 6
Wind_Direction
342 344 345 344 345 340 195 120 58 313 22 60 40 176 209 272 270 246 253 125 187 167 203 82 109 117 234 24 198 51 343 127 258 162 311 318 68 117 107 106 262 85 137 266
345 346 346 346 346 340 253 85 118 329 80 137 272 292 276 257 269 289 218 143 180 92 135 109 91 96 332 12 53 146 178 19 11 353 360 349 34 334 106 106 88 204 134 245
349 348 349 349 350 358 44 84 79 337 38 151 150 318 277 276 282 238 49 65 56 52 28 357 125 88 358 359 66 54 79 91 139 186 221 224 322 317 41 104 115 182 213 183
353 350 352 352 352 354 343 25 175 185 229 279 225 155 277 304 329 27 20 19 32 143 40 46 53 91 38 25 24 58 88 122 151 216 258 271 250 299 311 208 216 166 188 142
354 353 353 356 355 353 71 82 44 356 248 309 313 154 263 228 288 46 1 104 33 86 114 208 154 123 123 181 23 69 36 190 180 270 233 305 302 339 24 74 117 70 114 99
355 357 355 0 4 359 55 314 340 104 306 337 60 332 354 324 353 19 69 136 86 66 135 192 220 198 185 158 160 161 123 139 100 258 334 346 10 332 341 74 26 126 138 187
355 357 358 358 5 17 231 267 76 64 330 29 354 346 26 21 4 129 84 81 94 231 36 59 39 37 313 211 232 151 137 106 95 193 18 65 248 13 75 82 52 56 73 66
354 356 358 358 359 2 202 294 60 93 102 277 333 2 8 356 3 46 68 10 46 61 47 52 24 345 9 237 64 204 143 126 89 124 144 299 261 305 356 104 357 359 107 76
353 355 357 358 359 1 20 281 232 112 119 279 270 314 0 72 14 10 356 347 3 59 76 67 121 222 232 307 40 78 76 74 114 128 141 200 227 216 212 120 277 210 130 125
350 353 354 358 358 358 347 286 9 91 80 268 18 79 228 117 96 138 314 346 3 52 57 81 157 261 245 292 294 172 27 24 139 147 170 292 248 284 148 149 236 174 180 174
346 349 351 354 357 356 2 284 334 80 173 278 263 332 44 15 77 129 269 47 344 41 69 121 215 178 284 44 319 15 152 127 174 97 99 242 350 25 159 207 100 160 177 184
343 343 345 348 352 356 0 319 335 331 157 244 280 259 226 198 188 138 18 172 186 186 89 148 111 85 40 153 239 344 34 177 170 139 212 262 325 115 105 127 142 215 232 236
336 337 337 339 344 351 2 286 301 4 33 309 2 334 328 167 192 169 117 291 193 168 166 153 153 130 126 152 245 56 335 127 88 88 321 78 85 53 75 93 245 280 264 277
335 331 330 332 334 335 346 301 285 93 122 70 284 340 321 316 187 112 129 143 67 97 74 101 127 154 158 204 192 144 203 58 114 52 280 1 320 187 211 289 296 295 298 261
328 327 325 327 327 326 319 217 258 239 124 216 279 308 278 288 127 93 77 80 89 81 62 80 215 173 111 17 74 310 185 166 139 214 204 169 220 215 206 239 255 272 230 268
324 321 319 320 323 333 338 19 234 5 78 83 332 298 296 21 122 95 84 82 95 94 132 205 251 257 102 100 171 260 277 87 142 181 181 202 265 288 348 316 317 309 305 286
319 313 308 309 314 324 178 205 233 142 21 73 325 326 293 305 65 29 58 38 75 106 119 104 168 343 83 102 165 228 174 127 92 67 86 351 346 278 310 306 308 310 294 287
313 307 303 301 299 274 288 258 256 141 125 80 129 274 346 87 82 330 15 69 24 11 152 47 140 10 56 185 247 139 140 124 99 82 182 196 278 323 341 342 332 329 320 320
308 307 304 317 51 44 261 118 136 92 125 164 124 183 235 352 46 94 29 69 43 302 127 257 96 333 203 228 148 151 179 177 232 61 56 27 28 354 344 341 338 327 315 310
319 2 44 33 291 291 74 4 19 14 345 55 210 183 261 96 32 16 86 27 161 163 249 88 76 244 273 169 169 141 112 103 75 28 351 357 351 351 335 324 311 306 309 320
26 7 339 291 312 56 37 264 164 193 259 197 232 183 203 279 120 193 174 170 137 64 265 125 100 255 237 169 129 102 105 91 83 103 100 80 35 330 331 341 343 336 327 326
294 278 288 296 20 48 147 235 278 196 225 204 172 209 190 265 109 103 331 122 56 240 170 94 167 247 203 144 129 116 129 123 104 94 94 61 39 9 352 337 328 330 330 329
185 228 296 65 256 77 205 212 244 246 221 188 169 172 161 38 56 66 84 84 239 29 50 217 222 209 154 158 137 128 114 111 108 99 88 66 41 15 349 332 337 333 337 333
133 138 312 182 222 237 201 208 212 246 211 140 168 112 136 143 68 135 110 237 77 324 161 229 226 197 173 179 143 125 130 118 103 88 68 58 37 356 337 347 337 336 335 336
229 161 224 226 242 268 246 254 284 259 238 129 98 51 92 41 103 53 97 145 248 208 228 228 193 177 164 161 142 140 141 135 121 115 102 72 21 11 345 343 337 333 324 331
243 236 271 261 326 301 337 301 289 295 21 107 68 113 127 186 145 123 198 164 221 232 214 214 139 159 181 168 161 154 142 137 127 128 151 144 358 358 326 329 349 338 333 335
249 251 231 225 236 238 251 254 263 317 254 140 127 149 200 115 108 195 175 192 209 197 195 169 165 172 184 160 151 145 142 140 149 165 195 212 267 323 347 359 334 343 334 326